Weather History for KLWD - May, 2013

Change the Weather History Date:

Saturday, May 11, 2013

  Actual Average Record
Temperature  
Mean Temperature 50 °F 60 °F  
Max Temperature 59 °F 70 °F - ()
Min Temperature 41 °F 49 °F - ()
Degree Days  
Heating Degree Days 15 6  
Month to date heating degree days 135 84  
Since 1 July heating degree days 6015 5979  
Cooling Degree Days 0 1  
Month to date cooling degree days 0 7  
Year to date cooling degree days 12 14  
Growing Degree Days 1 (Base 50)    
Moisture  
Dew Point 32 °F    
Average Humidity 54    
Maximum Humidity 80    
Minimum Humidity 27    
Precipitation  
Precipitation 0.00 in 0.15 in - ()
Month to date precipitation 2.22 1.82  
Sea Level Pressure  
Sea Level Pressure 30.14 in    
Wind  
Wind Speed 15 mph (NW)    
Max Wind Speed 32 mph    
Max Gust Speed 41 mph    
Visibility 10 miles    
Events      
T = Trace of Precipitation, MM = Missing Value Source: NWS Daily Summary

Daily Weather History Graph

Daily Weather History Graph

Search for Another Location

Airport or City:

Trip Planner

Search our weather history database for the weather conditions in past years. The results will help you decide how hot, cold, wet, or windy it might be!

Date:

Astronomy

May. 11, 2013 Rise Set
Actual Time 6:02 AM CDT 8:22 PM CDT
Civil Twilight 5:31 AM CDT 8:52 PM CDT
Nautical Twilight 4:53 AM CDT 9:30 PM CDT
Astronomical Twilight 4:12 AM CDT 10:12 PM CDT
Moon 7:10 AM CDT (5/11) 10:03 PM CDT (5/11)
Length of Visible Light 15h 21m
Length of Day
14h 19m
Waxing Crescent, 3% of the Moon is Illuminated
May 11
Waxing Crescent
May 17
First Quarter
May 24
Full
May 31
Last Quarter
Jun 8
New

Hourly Weather History & Observations

Time (CDT) Temp. Windchill Dew Point Humidity Pressure Visibility Wind Dir Wind Speed Gust Speed Precip Events Conditions
12:53 AM 50.0 °F - 44.1 °F 80% 30.04 in 10.0 mi WSW 5.8 mph - N/A   Clear
1:53 AM 51.1 °F - 44.1 °F 77% 30.02 in 10.0 mi WSW 4.6 mph - N/A   Clear
2:53 AM 51.1 °F - 43.0 °F 74% 30.01 in 10.0 mi WSW 4.6 mph - N/A   Clear
3:53 AM 48.9 °F - 43.0 °F 80% 30.01 in 10.0 mi West 6.9 mph - N/A   Clear
4:53 AM 50.0 °F - 44.1 °F 80% 30.01 in 10.0 mi West 8.1 mph - N/A   Overcast
5:53 AM 52.0 °F - 43.0 °F 71% 30.05 in 10.0 mi NNW 11.5 mph 20.7 mph N/A   Mostly Cloudy
6:53 AM 51.1 °F - 33.1 °F 50% 30.08 in 10.0 mi North 20.7 mph 28.8 mph N/A   Mostly Cloudy
7:53 AM 51.1 °F - 30.9 °F 46% 30.12 in 10.0 mi North 18.4 mph - N/A   Clear
8:53 AM 54.0 °F - 30.0 °F 40% 30.13 in 10.0 mi North 18.4 mph 28.8 mph N/A   Clear
9:53 AM 55.0 °F - 27.0 °F 34% 30.15 in 10.0 mi North 21.9 mph 39.1 mph N/A   Clear
10:53 AM 55.9 °F - 28.0 °F 34% 30.16 in 10.0 mi North 26.5 mph 38.0 mph N/A   Clear
11:53 AM 57.0 °F - 28.9 °F 34% 30.17 in 10.0 mi North 26.5 mph 35.7 mph N/A   Clear
12:53 PM 57.9 °F - 30.0 °F 35% 30.18 in 10.0 mi NNW 25.3 mph 33.4 mph N/A   Clear
1:53 PM 57.9 °F - 32.0 °F 37% 30.18 in 10.0 mi North 26.5 mph 35.7 mph N/A   Clear
2:53 PM 59.0 °F - 30.0 °F 33% 30.18 in 10.0 mi NNW 18.4 mph 34.5 mph N/A   Clear
3:53 PM 59.0 °F - 30.0 °F 33% 30.19 in 10.0 mi NNW 25.3 mph 32.2 mph N/A   Clear
4:53 PM 57.9 °F - 27.0 °F 31% 30.19 in 10.0 mi NNW 17.3 mph 27.6 mph N/A   Clear
5:53 PM 57.0 °F - 25.0 °F 29% 30.19 in 10.0 mi North 18.4 mph 28.8 mph N/A   Clear
6:53 PM 55.0 °F - 23.0 °F 29% 30.19 in 10.0 mi NNW 17.3 mph 26.5 mph N/A   Clear
7:53 PM 52.0 °F - 23.0 °F 32% 30.20 in 10.0 mi NNW 11.5 mph - N/A   Clear
9:53 PM 44.1 °F 40.1 °F 28.0 °F 53% 30.23 in 10.0 mi WNW 6.9 mph - N/A   Clear
10:53 PM 43.0 °F 38.8 °F 28.0 °F 56% 30.24 in 10.0 mi NW 6.9 mph - N/A   Clear
11:53 PM 41.0 °F 36.4 °F 28.0 °F 60% 30.24 in 10.0 mi NNW 6.9 mph - N/A   Clear